ASTRA 1N

Last updated on Thu Nov 21 2024 00:02:41 GMT+0000 (Coordinated Universal Time)

1 37775U 11041A 24324.53451992 .00000121 00000+0 00000+0 0 9991 2 37775 0.0785 44.0998 0001322 223.3456 3.2714 1.00269937 38766
UTC large
Height (km)
Speed (km/s)
/
Latitude / Longitude
Inclination (degrees)
Orbital Period (minutes)
Azimuth
Elevation
Range (km)
Doppler Factor

Next 0 passes for location: London (51.5072 / 0.1276)

Sorry there are no passes over London.